Weather History for Roswell, NM

Change the Weather History Date:

Thursday, July 19, 2012

  Actual Average Record
Temperature  
Mean Temperature 81 °F 80 °F  
Max Temperature 94 °F 94 °F 104 °F (1925)
Min Temperature 68 °F 67 °F 57 °F (1947)
Degree Days  
Heating Degree Days 0 0  
Month to date heating degree days 0 0  
Since 1 June heating degree days 0 1  
Since 1 July heating degree days 0 0  
Cooling Degree Days 16 15  
Month to date cooling degree days 325 297  
Year to date cooling degree days 1248 919  
Since 1 June cooling degree days 875 694  
Growing Degree Days 30 (Base 50)    
Moisture  
Dew Point 55 °F    
Average Humidity 45    
Maximum Humidity 66    
Minimum Humidity 23    
Precipitation  
Precipitation 0.00 in 0.06 in 3.32 in (1988)
Month to date precipitation 0.62 1.33  
Year to date precipitation 2.67 6.23  
Sea Level Pressure  
Sea Level Pressure 29.95 in    
Wind  
Wind Speed 9 mph (SSE)    
Max Wind Speed 20 mph    
Max Gust Speed 29 mph    
Visibility 10 miles    
Events      
T = Trace of Precipitation, MM = Missing Value Source: NWS Daily Summary

Daily Weather History Graph

Daily Weather History Graph

Search for Another Location

Airport:

Trip Planner

Search our weather history database for the weather conditions in past years. The results will help you decide how hot, cold, wet, or windy it might be!

Date:

Astronomy

Jul. 19, 2012 Rise Set
Actual Time 6:02 AM MDT 8:06 PM MDT
Civil Twilight 5:34 AM MDT 8:33 PM MDT
Nautical Twilight 5:00 AM MDT 9:07 PM MDT
Astronomical Twilight 4:24 AM MDT 9:44 PM MDT
Moon 6:35 AM MDT 8:20 PM MDT
Length of Visible Light 14h 59m
Length of Day
14h 03m
New Moon, 0% of the Moon is Illuminated
Jul 19
New Moon
Jul 26
First Quarter
Aug 1
Full
Aug 9
Last Quarter
Aug 17
New

Hourly Weather History & Observations

Time (MDT) Temp. Heat Index Dew Point Humidity Pressure Visibility Wind Dir Wind Speed Gust Speed Precip Events Conditions
12:51 AM 75.9 °F - 52.0 °F 43% 29.90 in 10.0 mi South 8.1 mph - N/A   Clear
1:51 AM 77.0 °F - 55.9 °F 48% 29.91 in 10.0 mi South 10.4 mph - N/A   Clear
2:51 AM 73.9 °F - 57.9 °F 57% 29.92 in 10.0 mi South 6.9 mph - N/A   Clear
3:51 AM 72.0 °F - 59.0 °F 64% 29.93 in 10.0 mi SSE 6.9 mph - N/A   Clear
4:51 AM 72.0 °F - 59.0 °F 64% 29.94 in 10.0 mi South 6.9 mph - N/A   Clear
5:51 AM 69.1 °F - 57.9 °F 68% 29.96 in 10.0 mi SSE 3.5 mph - N/A   Clear
6:51 AM 71.1 °F - 59.0 °F 66% 29.96 in 9.0 mi Calm Calm - N/A   Clear
7:51 AM 75.0 °F - 60.1 °F 60% 29.98 in 10.0 mi ESE 5.8 mph - N/A   Clear
8:51 AM 77.0 °F - 61.0 °F 58% 30.00 in 10.0 mi Variable 5.8 mph - N/A   Clear
9:51 AM 80.1 °F 81.1 °F 61.0 °F 52% 30.00 in 10.0 mi SE 6.9 mph - N/A   Clear
10:51 AM 82.9 °F 82.6 °F 57.9 °F 42% 30.00 in 10.0 mi ESE 6.9 mph - N/A   Clear
11:51 AM 88.0 °F 86.1 °F 55.0 °F 32% 29.99 in 10.0 mi SSE 11.5 mph - N/A   Clear
12:51 PM 89.1 °F 86.9 °F 54.0 °F 30% 29.98 in 10.0 mi ENE 8.1 mph - N/A   Partly Cloudy
1:51 PM 91.0 °F - 52.0 °F 26% 29.96 in 10.0 mi SE 15.0 mph 21.9 mph N/A   Clear
2:51 PM 91.9 °F - 50.0 °F 24% 29.94 in 10.0 mi South 9.2 mph 21.9 mph N/A   Clear
3:51 PM 93.9 °F - 50.0 °F 22% 29.92 in 10.0 mi SSE 17.3 mph 21.9 mph N/A   Clear
4:51 PM 93.0 °F - 51.1 °F 24% 29.91 in 10.0 mi SE 13.8 mph 21.9 mph N/A   Clear
5:51 PM 93.0 °F - 51.1 °F 24% 29.89 in 10.0 mi SSE 17.3 mph 24.2 mph N/A   Clear
6:51 PM 90.0 °F - 52.0 °F 27% 29.89 in 10.0 mi SE 15.0 mph - N/A   Clear
7:51 PM 88.0 °F - 52.0 °F 29% 29.90 in 10.0 mi SSE 11.5 mph - N/A   Clear
8:51 PM 84.0 °F 82.6 °F 54.0 °F 35% 29.93 in 10.0 mi SSE 6.9 mph - N/A   Clear
9:51 PM 81.0 °F 80.5 °F 54.0 °F 39% 29.96 in 10.0 mi SSE 3.5 mph - N/A   Clear
10:51 PM 78.1 °F - 52.0 °F 40% 29.98 in 10.0 mi South 6.9 mph - N/A   Clear
11:51 PM 75.9 °F - 52.0 °F 43% 30.00 in 10.0 mi South 6.9 mph - N/A   Clear